Погода в Большом Игнатово

Россия / Республика Мордовия     55°00′58″N   45°34′20″E
темп.,
°C
ветер,
м/с
пор.,
м/с
влажн.,
%
обл.,
%
осадки,
мм/ч
давл.,
гПа
погр.,
м
19 сентября, вс
вс1900:00+2ссв1173100 0.0 102611
03:00+2св2274100 0.0 102621
06:00+1св2283100 0.0 102612
09:00+6в2359100 0.0 1026537
12:00+9всв2246100 0.0 10261077
15:00+10всв2242100 0.0 10251161
18:00+7всв2251100 0.0 102429
21:00+5в355573 0.0 102586
20 сентября, пн
пн2000:00+5в4957100 0.0 1025217
03:00+5в4958100 0.0 1025267
06:00+4в51163100 0.0 1024377
09:00+6вюв5963100 0.0 1025612
12:00+8вюв6756100 0.0 1024927
15:00+9вюв6849100 0.0 10241171
18:00+8в61053100 0.0 1023804
21:00+7в61157100 0.0 1023527
21 сентября, вт
вт2100:00+7в61356100 0.0 1022618
03:00+7в61159100 0.0 1021923
06:00+6в71464100 0.1 1020762
09:00+6вюв61376100 0.5 1020776
12:00+6в71386100 0.9 1019629
15:00+6вюв7118599 0.9 1018656
18:00+6в6118399 0.0 1017543
21:00+5в51186100 0.0 1017390
22 сентября, ср
ср2200:00+6в51183100 0.0 1015342
03:00+6в51181100 0.0 1014345
06:00+6в61285100 0.6 1013400
09:00+7в61393100 4.1 1012441
12:00+9в51195100 2.9 1011683
15:00+9вюв4998100 7.8 1011557
18:00+9юв3698100 0.2 1012289
21:00+9вюв249879 0.2 1013140
23 сентября, чт
чт2300:00+7юв229715 0.0 101420
03:00+8вюв2295100 0.0 101446
06:00+8вюв3597100 0.0 1014138
09:00+10юв2595100 0.0 1014188
12:00+12вюв3487100 0.1 1014371
15:00+13вюв3579100 1.3 1012344
18:00+12юв51087100 0.7 1012384
21:00+11юв51195100 0.8 1011549